カタログに戻る

ORBCOMM FM 6

運用中通信LEO
NORAD 25118·PAYLOAD·🇺🇸 United States

打ち上げ Dec 23, 1997 から Cape Canaveral Space Force Station

Loading…

次のパス (今後24時間)

TLE

最新Source: Space-Track

元期: Sep 14, 2026, 05:26 UTC

1 25118U 97084G   26257.22646311  .00000854  00000-0  26813-3 0  9992
2 25118  45.0150 344.0073 0001778 242.1852 140.6384 14.47745461507294

AllMySatでORBCOMM FM 6をリアルタイム追跡

Download on the App Store